Regional Weather Roundup
Issued by NWS

Home | Current Version | Previous Version | Graphics & Text | Print | Product List | Glossary On
Versions: 1 2 3 4 5 6 7 8 9 10 11 12 13 14 15 16 17 18 19 20 21 22 23 24 25 26 27 28 29 30 31 32 33 34 35 36 37 38 39 40 41 42 43 44 45 46 47 48 49 50
000
ASUS43 KLOT 250508
RWRIL

ILLINOIS REGIONAL WEATHER ROUNDUP
NATIONAL WEATHER SERVICE CHICAGO/ROMEOVILLE IL
1200 AM CDT SAT APR 25 2015

NOTE: "FAIR" INDICATES FEW OR NO CLOUDS BELOW 12,000 FEET WITH NO
SIGNIFICANT WEATHER AND/OR OBSTRUCTIONS TO VISIBILITY.

* THESE STATIONS ARE NOT UNDER NWS QUALITY CONTROL. THEY ALSO MAY NOT
  REPORT WEATHER SUCH AS PRECIPITATION OR FOG.

ILZ001-002-007-009-015-016-024-250600-
NORTHWEST ILLINOIS

CITY           SKY/WX    TMP DP  RH WIND       PRES   REMARKS
MOLINE         CLOUDY    47  39  74 E15       29.78F
STERLING*      CLOUDY    43  37  81 E21       29.82F
SAVANNA*       CLOUDY    42  39  89 E14G21    29.83F
$$

ILZ003-004-008-010-011-017-018-250600-
NORTH CENTRAL ILLINOIS

CITY           SKY/WX    TMP DP  RH WIND       PRES   REMARKS
ROCKFORD       CLOUDY    42  35  76 E10G21    29.92R
FREEPORT*      CLOUDY    40  37  90 E16       29.89F
ROCHELLE*      LGT RAIN  40  38  92 E17G23    29.86S
DE KALB*       LGT RAIN  38  36  90 E16G23    29.87F WCI  29
PERU*          LGT RAIN  46  38  72 E13G20    29.81F
$$

ILZ005-006-012>014-019>023-250600-
NORTHEAST ILLINOIS

CITY           SKY/WX    TMP DP  RH WIND       PRES   REMARKS
CHICAGO-OHARE  CLOUDY    41  36  82 NE13      29.91F
CHICAGO-MIDWAY CLOUDY    43  39  86 NE16      29.90F
AURORA         LGT RAIN  42  37  82 E16G24    29.87F
LANSING*       RAIN      45  38  77 N7        29.88R
JOLIET*        RAIN      43  41  93 NE10      29.88R
WAUKEGAN       CLOUDY    39  35  86 NE13      29.93F WCI  31
DUPAGE AIRPORT LGT RAIN  40  36  86 E16       29.88F
KANKAKEE*      CLOUDY    45  38  75 NE10      29.86F
WHEELING       CLOUDY    41  35  79 NE10G17   29.94F
MORRIS*        RAIN      43  40  89 NE6       29.83R
ROMEOVILLE*    RAIN      41  38  89 NE10      29.89S
NORTHERLY ISL    N/A     42  38  85 E14         N/A
$$

LMZ740>746-250600-
SOUTHERN LAKE MICHIGAN

STATION/POSITION SKY/WX   TEMP    WIND        PRES    VSBY  WAVE
                          AIR SEA DIR/SP/G                  HT/PER
                          (F)     (DEG/KT/KT) (MB)    (MI)  (FT/S)
HARRISON CRIB              39      50/ 21/ 25   N/A
BURNHAM HARBOR             42      70/ 14/ 16   N/A
CALUMET HARBOR             43     110/  7/ 14   N/A
BURNS HARBOR               48     120/ 13/ 24 1011.9F
MICHIGAN CITY              44      80/ 11/ 14   N/A
MICHIGAN CITY 6N           44 44   80/ 12/ 16   N/A           3/ 4
$$

ILZ025>027-034>036-040-047-049-050-058-095>099-250600-
WEST-CENTRAL ILLINOIS

CITY           SKY/WX    TMP DP  RH WIND       PRES   REMARKS
QUINCY         HVY RAIN  54  48  80 SE9       29.70F
GALESBURG*     CLOUDY    52  38  59 E10       29.74F
MACOMB*        CLOUDY    56  40  54 SE10      29.75F
JACKSONVILLE*  CLOUDY    56  45  65 SE7       29.74F
PITTSFIELD*    CLOUDY    56  47  71 SE10      29.73S
$$

ILZ028>032-037-038-041>044-048-051>054-059>061-250600-
CENTRAL ILLINOIS

CITY           SKY/WX    TMP DP  RH WIND       PRES   REMARKS
PONTIAC        CLOUDY    47  37  68 NE16      29.84S
BLOOMINGTON    CLOUDY    54  37  52 SE10      29.82F
DECATUR        CLOUDY    56  37  49 SE9       29.78F
PEORIA         CLOUDY    57  36  45 SE8       29.77F
LACON*         CLOUDY    48  38  70 E14G21    29.80F
LINCOLN*       CLOUDY    55  38  53 E6        29.77F
SPRINGFIELD    CLOUDY    56  42  59 S14       29.76F
TAYLORVILLE    CLOUDY    54  37  54 SE8       29.76F
$$

ILZ033-039-045-046-055>057-062-063-250600-
EAST-CENTRAL ILLINOIS

CITY           SKY/WX    TMP DP  RH WIND       PRES   REMARKS
CHAMPAIGN      LGT RAIN  52  42  69 E8        29.82F
DANVILLE*      CLOUDY    52  39  61 E7        29.80F
RANTOUL*       CLOUDY    55  40  57 E6        29.83F
MATTOON        CLOUDY    56  37  49 S9        29.79F
PARIS*         DRIZZLE   53  42  67 E3        29.83F
$$

ILZ079-100>102-250600-
SOUTHWEST ILLINOIS

CITY           SKY/WX    TMP DP  RH WIND       PRES   REMARKS
ALTON          CLOUDY    54  45  71 SE6       29.75F
BELLEVILLE     CLOUDY    55  47  74 SE5       29.74F
CAHOKIA*       CLOUDY    55  46  71 S7        29.74F
SPARTA*        CLOUDY    55  46  72 CALM      29.77S
$$

ILZ064>066-069>071-074>076-080>082-084>086-088>090-092>094-250600-
SOUTH-CENTRAL ILLINOIS

CITY           SKY/WX    TMP DP  RH WIND       PRES   REMARKS
CARBONDALE     CLOUDY    57  45  64 S6        29.77F
CAIRO*         CLOUDY    57  53  88 S7        29.78R
EFFINGHAM*     CLOUDY    56  36  47 E8        29.80F
MARION         CLOUDY    59  45  58 S7        29.79F
MT. VERNON     CLOUDY    55  39  54 E3        29.80S
CENTRALIA*     CLOUDY    56  41  58 SE8       29.78S
SALEM*         CLOUDY    58  42  54 S5        29.79F
METROPOLIS*    CLOUDY    58  51  76 CALM      29.79R
$$

ILZ067-068-072-073-078-083-087-091-250600-
SOUTHEAST ILLINOIS

CITY           SKY/WX    TMP DP  RH WIND       PRES   REMARKS
LAWRENCEVILLE  CLOUDY    56  41  57 SE7       29.83F
FLORA*         CLOUDY    55  42  62 SE8       29.81S
FAIRFIELD*     CLOUDY    56  42  61 E3        29.80S
HARRISBURG*    CLOUDY    56  45  65 SE3       29.82R
ROBINSON*      CLOUDY    55  40  58 SE7       29.83F
CARMI*         CLOUDY    55  41  58 E5        29.80S
$$

ABBREVIATIONS USED IN REMARKS
   TC - TEMPERATURE IN CELSIUS
  WCI - WIND CHILL INDEX
   HX - HEAT INDEX
  VSB - VISIBILITY
$$




USA.gov is the U.S. government's official web portal to all federal, state and local government web resources and services.